NOZ1413 LFMT-ENGM

Flight info

Callsign NOZ1413
Flight time N/A
Altitude 36000
Route NG DCT MOLEN DCT MTL DCT ETREK DCT LUXAN DCT LTP DCT SOPLO DCT OMASI DCT KINNI DCT GILIR DCT PENDU DCT IXILU DCT EPL DCT ROUSY DCT ARCKY DCT IBESA DCT KUGAL DCT PIPEX DCT RIPAM
Aircraft B738/M-SDE2E3GHIJ1LRWXY/LB1

Departure

Time 2026-04-17 11:02
Airport Montpellier-Méditerranée Airport (LFMT)

Arrival

Time N/A
Airport Oslo-Gardermoen International Airport (ENGM)
Time Latitude Longitude Altitude Speed Heading
2026-04-17 10:48 43.57981 3.96102 18 ft 4 kts 129°
2026-04-17 10:49 43.57992 3.96082 16 ft 3 kts 124°
2026-04-17 10:55 43.57991 3.96082 14 ft 0 kts 124°
2026-04-17 10:55 43.57987 3.96091 14 ft 3 kts 125°
2026-04-17 10:56 43.57970 3.96133 15 ft 7 kts 110°
2026-04-17 10:56 43.57988 3.96209 15 ft 11 kts 43°
2026-04-17 10:56 43.58063 3.96239 15 ft 13 kts 328°
2026-04-17 10:56 43.58118 3.96146 14 ft 12 kts 308°
2026-04-17 10:57 43.58170 3.96050 13 ft 12 kts 305°
2026-04-17 10:57 43.58218 3.95953 13 ft 12 kts 303°
2026-04-17 10:57 43.58264 3.95858 12 ft 12 kts 304°
2026-04-17 10:57 43.58310 3.95766 12 ft 11 kts 304°
2026-04-17 10:58 43.58355 3.95677 11 ft 11 kts 304°
2026-04-17 10:58 43.58399 3.95589 12 ft 11 kts 304°
2026-04-17 10:58 43.58447 3.95512 12 ft 11 kts 327°
2026-04-17 10:58 43.58503 3.95498 11 ft 0 kts 11°
2026-04-17 11:00 43.58520 3.95509 12 ft 6 kts 30°
2026-04-17 11:00 43.58574 3.95569 10 ft 12 kts 40°
2026-04-17 11:01 43.58581 3.95632 10 ft 0 kts 123°
2026-04-17 11:01 43.58567 3.95662 10 ft 17 kts 123°
2026-04-17 11:01 43.58351 3.96090 13 ft 90 kts 124°
2026-04-17 11:01 43.57863 3.97048 13 ft 151 kts 126°
2026-04-17 11:02 43.57206 3.98356 416 ft 170 kts 126°
2026-04-17 11:02 43.56601 3.99753 1215 ft 176 kts 111°
2026-04-17 11:02 43.56476 4.01557 1610 ft 209 kts 79°
2026-04-17 11:02 43.57118 4.03476 1902 ft 233 kts 50°
2026-04-17 11:03 43.58426 4.04843 2458 ft 242 kts 22°
2026-04-17 11:03 43.60066 4.05494 3013 ft 254 kts 13°
2026-04-17 11:03 43.61816 4.06126 3657 ft 265 kts 14°
2026-04-17 11:03 43.63581 4.06839 4730 ft 263 kts 21°
2026-04-17 11:04 43.65041 4.08331 5796 ft 265 kts 45°
2026-04-17 11:04 43.66282 4.10262 6640 ft 273 kts 46°
2026-04-17 11:04 43.67540 4.12259 7442 ft 278 kts 47°
2026-04-17 11:04 43.68820 4.14288 8301 ft 282 kts 47°
2026-04-17 11:05 43.70126 4.16346 9160 ft 287 kts 47°
2026-04-17 11:05 43.71456 4.18429 10012 ft 291 kts 47°
2026-04-17 11:05 43.72817 4.20551 10622 ft 303 kts 46°
2026-04-17 11:05 43.74258 4.22790 10837 ft 328 kts 46°
2026-04-17 11:06 43.75802 4.25189 11419 ft 338 kts 46°
2026-04-17 11:06 43.77376 4.27637 12147 ft 342 kts 46°
2026-04-17 11:06 43.78963 4.30105 12961 ft 345 kts 46°
2026-04-17 11:06 43.80564 4.32596 13754 ft 348 kts 46°
2026-04-17 11:07 43.82184 4.35117 14469 ft 352 kts 46°
2026-04-17 11:07 43.83819 4.37662 15159 ft 356 kts 46°
2026-04-17 11:07 43.85532 4.40156 15831 ft 359 kts 37°
2026-04-17 11:07 43.87707 4.41817 16502 ft 359 kts 20°
2026-04-17 11:08 43.90045 4.43060 17207 ft 362 kts 19°
2026-04-17 11:08 43.92417 4.44290 17867 ft 366 kts 19°
2026-04-17 11:08 43.94816 4.45544 18520 ft 370 kts 19°
2026-04-17 11:08 43.97239 4.46831 19052 ft 375 kts 19°
2026-04-17 11:09 43.99688 4.48147 19614 ft 379 kts 19°
2026-04-17 11:09 44.02156 4.49482 20195 ft 383 kts 19°
2026-04-17 11:09 44.04647 4.50833 20771 ft 386 kts 19°
2026-04-17 11:10 44.09717 4.53547 21847 ft 394 kts 19°
2026-04-17 11:10 44.12295 4.54909 22379 ft 398 kts 19°
2026-04-17 11:10 44.14896 4.56284 22923 ft 402 kts 19°
2026-04-17 11:10 44.17522 4.57674 23412 ft 406 kts 19°
2026-04-17 11:11 44.20182 4.59085 23862 ft 411 kts 19°
2026-04-17 11:11 44.22863 4.60511 24308 ft 414 kts 19°
2026-04-17 11:11 44.25554 4.61945 24803 ft 415 kts 19°
2026-04-17 11:11 44.28254 4.63385 25285 ft 416 kts 19°
2026-04-17 11:12 44.30965 4.64832 25728 ft 418 kts 19°
2026-04-17 11:12 44.33692 4.66290 26166 ft 421 kts 18°
2026-04-17 11:12 44.36433 4.67756 26563 ft 424 kts 18°
2026-04-17 11:12 44.39195 4.69235 26989 ft 426 kts 18°
2026-04-17 11:13 44.41968 4.70722 27410 ft 428 kts 18°
2026-04-17 11:13 44.44755 4.72218 27829 ft 430 kts 18°
2026-04-17 11:13 44.47552 4.73721 28219 ft 432 kts 18°
2026-04-17 11:13 44.50366 4.75232 28604 ft 434 kts 18°
2026-04-17 11:14 44.53229 4.76603 28979 ft 434 kts 11°
2026-04-17 11:14 44.56203 4.77279 29326 ft 434 kts
2026-04-17 11:14 44.59215 4.77289 29691 ft 432 kts 352°
2026-04-17 11:14 44.62193 4.76704 30085 ft 433 kts 348°
2026-04-17 11:15 44.65167 4.76009 30392 ft 434 kts 348°
2026-04-17 11:15 44.68156 4.75294 30669 ft 437 kts 348°
2026-04-17 11:15 44.71156 4.74586 30925 ft 438 kts 348°
2026-04-17 11:15 44.74174 4.73889 31213 ft 440 kts 348°
2026-04-17 11:16 44.77195 4.73205 31504 ft 441 kts 348°
2026-04-17 11:16 44.80231 4.72526 31772 ft 443 kts 348°
2026-04-17 11:16 44.83238 4.71858 32083 ft 443 kts 348°
2026-04-17 11:16 44.86273 4.71185 32474 ft 440 kts 348°
2026-04-17 11:17 44.89291 4.70515 32858 ft 439 kts 348°
2026-04-17 11:17 44.92305 4.69844 33222 ft 438 kts 348°
2026-04-17 11:17 44.95314 4.69171 33546 ft 437 kts 348°
2026-04-17 11:17 44.98313 4.68501 33884 ft 437 kts 348°
2026-04-17 11:18 45.01312 4.67829 34223 ft 435 kts 348°
2026-04-17 11:18 45.04296 4.67160 34527 ft 434 kts 348°
2026-04-17 11:18 45.07283 4.66490 34795 ft 434 kts 348°
2026-04-17 11:18 45.10266 4.65820 35046 ft 434 kts 348°
2026-04-17 11:19 45.13264 4.65296 35311 ft 437 kts 357°
2026-04-17 11:19 45.16279 4.65972 35535 ft 445 kts 16°
2026-04-17 11:19 45.19061 4.67942 35787 ft 451 kts 32°
2026-04-17 11:19 45.21409 4.70914 36009 ft 458 kts 49°
2026-04-17 11:20 45.23133 4.74735 36203 ft 462 kts 59°
2026-04-17 11:20 45.24657 4.78787 36172 ft 466 kts 60°
2026-04-17 11:20 45.27595 4.86885 36173 ft 457 kts 60°
2026-04-17 11:21 45.30544 4.94828 36183 ft 454 kts 59°
2026-04-17 11:21 45.33522 5.02722 36189 ft 453 kts 59°
2026-04-17 11:22 45.36496 5.10617 36187 ft 452 kts 59°
2026-04-17 11:22 45.39454 5.18512 36185 ft 452 kts 59°
2026-04-17 11:23 45.42407 5.26423 36187 ft 453 kts 59°
2026-04-17 11:23 45.45358 5.34350 36184 ft 453 kts 59°
2026-04-17 11:24 45.48387 5.42220 36179 ft 452 kts 53°
2026-04-17 11:24 45.52548 5.48795 36197 ft 445 kts 38°
2026-04-17 11:25 45.57189 5.54565 36187 ft 446 kts 38°
2026-04-17 11:25 45.61851 5.60422 36186 ft 447 kts 38°
2026-04-17 11:26 45.66483 5.66347 36192 ft 447 kts 39°
2026-04-17 11:26 45.71102 5.72284 36197 ft 447 kts 39°
2026-04-17 11:27 45.75727 5.78229 36199 ft 446 kts 39°